Tracking 30102 objects as of 12-Dec-2024
HD Live streaming from Space Station
objects crossing your sky now

STARLINK-32412

Track STARLINK-32412 now!
10-day predictions
STARLINK-32412 is classified as:


NORAD ID: 61680
Int'l Code: 2024-193V
Perigee: 453.6 km
Apogee: 455.3 km
Inclination: 53.2 °
Period: 93.5 minutes
Semi major axis: 6825 km
RCS: Unknown
Launch date: October 26, 2024
Source: United States (US)
Launch site: AIR FORCE EASTERN TEST RANGE (AFETR)
Your satellite tracking list
Your tracking list is empty




NASA's NSSDC Master Catalog

Two Line Element Set (TLE):
1 61680U 24193V   24346.43910172  .00001400  00000-0  45009-4 0  9993
2 61680  53.1606  39.0313 0001212 124.5930 235.5190 15.39599206  8319
Source of the keplerian elements: AFSPC